Погода в Хисаре

Болгария     41°32′22″N   25°39′01″E
темп.,
°C
ветер,
м/с
пор.,
м/с
влажн.,
%
обл.,
%
осадки,
мм/ч
давл.,
гПа
погр.,
м
15 июня, вт
вт1500:00+10сз229138 0.9 101513
03:00+9ссз11915 1.2 101410
06:00+9с228998 0.0 101414
09:00+13с387893 0.0 1015520
12:00+17ссз6761100 0.0 10141128
15:00+19ссз4652100 0.1 10131918
18:00+17с3468100 0.4 1012757
21:00+11юз2296100 1.5 101369
16 июня, ср
ср1600:00+11юз2398100 2.5 1013120
03:00+12зюз2395100 3.4 101190
06:00+12з2294100 0.3 101160
09:00+18ссз4117835 0.8 1011724
12:00+21ссз8136487 0.4 10111366
15:00+22с7106246 0.9 10111763
18:00+21ссв5873100 1.1 1012586
21:00+16зсз11879 1.6 101411
17 июня, чт
чт1700:00+15зюз11906 0.5 101511
03:00+14юз119022 0.6 101511
06:00+14ю119024 0.0 101611
09:00+19св11807 0.1 1017374
12:00+22в117028 4.4 1017910
15:00+23юз236537 7.7 10161190
18:00+23зюз226896 2.3 1016721
21:00+18ю118325 3.1 101611
18 июня, пт
пт1800:00+16зюз118612 0.1 101711
03:00+15з11929 1.2 101611
06:00+15сз119287 0.0 101611
09:00+19сз1183100 0.1 1016215
12:00+21с2270100 2.1 1015419
15:00+21с3476100 3.2 1015785
18:00+17ю0193100 2.3 101658
21:00+16юз119197 2.3 101511
19 июня, сб
сб1900:00+15зюз119078 0.0 101611
03:00+15зсз1189100 0.0 101511
06:00+16ссз118996 0.0 101511
09:00+16сз129389 0.0 101669
12:00+22ссв237053 1.2 1015987
15:00+23ссв226636 3.2 10141133
18:00+23св22625 0.6 10141093
21:00+17ссв349160 2.6 101553